Prague, Czech Republic

4:16 PM CEST on July 24, 2017 (GMT +0200)
Ruzyne

Weather History for LKPR - November, 2011

Change the Weather History Date:

Friday, November 18, 2011

  Actual Average Record
Temperature  
Mean Temperature 38 °F -  
Max Temperature 45 °F 38 °F 57 °F (2015)
Min Temperature 31 °F 28 °F 24 °F (1997)
Degree Days  
Heating Degree Days 27    
Moisture  
Dew Point 37 °F    
Average Humidity 93    
Maximum Humidity 100    
Minimum Humidity 81    
Precipitation  
Precipitation 0.00 in 0.04 in - ()
Sea Level Pressure  
Sea Level Pressure 30.25 in    
Wind  
Wind Speed 6 mph ()    
Max Wind Speed 10 mph    
Max Gust Speed -    
Visibility 4.3 miles    
Events      
Averages and records for this station are not official NWS values.
T = Trace of Precipitation, MM = Missing Value Source: Averaged Metar Reports

Daily Weather History Graph

Daily Weather History Graph

Search for Another Location

Airport or City:

Trip Planner

Search our weather history database for the weather conditions in past years. The results will help you decide how hot, cold, wet, or windy it might be!

Date:

Astronomy

Nov. 18, 2011 Rise Set
Actual Time 7:20 AM CET 4:15 PM CET
Civil Twilight 6:44 AM CET 4:51 PM CET
Nautical Twilight 6:04 AM CET 5:30 PM CET
Astronomical Twilight 5:26 AM CET 6:09 PM CET
Moon 11:43 PM CET (11/18) 12:34 PM CET (11/18)
Length of Visible Light 10h 07m
Length of Day
8h 55m
Waning Gibbous, 52% of the Moon is Illuminated
Nov 18
Waning Gibbous
Nov 18
Last Quarter
Nov 25
New
Dec 2
First Quarter
Dec 10
Full

Hourly Weather History & Observations

Time (CET) Temp. Windchill Dew Point Humidity Pressure Visibility Wind Dir Wind Speed Gust Speed Precip Events Conditions
12:00 AM 35.6 °F 29.9 °F 33.8 °F 93% 30.24 in 3.7 mi WSW 6.9 mph - N/A   Overcast
12:30 AM 33.8 °F 27.7 °F 33.8 °F 100% 30.24 in 3.1 mi SW 6.9 mph - N/A   Mostly Cloudy
1:00 AM 33 °F - 32 °F 92% 30.31 in 4 mi SW 6.7 mph - -   Mist
1:00 AM 33.8 °F 27.7 °F 32.0 °F 93% 30.24 in 3.7 mi SW 6.9 mph - N/A   Mostly Cloudy
1:30 AM 33.8 °F 27.7 °F 32.0 °F 93% 30.24 in 3.1 mi SW 6.9 mph - N/A   Mostly Cloudy
2:00 AM 32.0 °F 27.5 °F 30.2 °F 93% 30.24 in 3.1 mi SW 4.6 mph - N/A   Partly Cloudy
2:30 AM 33.8 °F 26.4 °F 32.0 °F 93% 30.24 in 3.1 mi SSW 9.2 mph - N/A   Mostly Cloudy
3:00 AM 32.0 °F 24.8 °F 30.2 °F 93% 30.24 in 3.1 mi SW 8.1 mph - N/A   Mist
3:30 AM 32.0 °F 24.2 °F 30.2 °F 93% 30.21 in 3.1 mi SW 9.2 mph - N/A   Mostly Cloudy
4:00 AM 35.6 °F 29.2 °F 33.8 °F 93% 30.21 in 3.1 mi SW 8.1 mph - N/A   Mostly Cloudy
4:30 AM 35.6 °F 31.7 °F 33.8 °F 93% 30.24 in - West 4.6 mph - N/A   Mostly Cloudy
5:00 AM 33.8 °F - 32.0 °F 93% 30.24 in - Variable 1.2 mph - N/A   Overcast
5:30 AM 35.6 °F - 33.8 °F 93% 30.24 in 2.8 mi Variable 2.3 mph - N/A   Mostly Cloudy
6:00 AM 35.6 °F 28.6 °F 35.6 °F 100% 30.24 in - SW 9.2 mph - N/A   Mostly Cloudy
6:30 AM 35.6 °F 29.2 °F 35.6 °F 100% 30.24 in - WSW 8.1 mph - N/A   Mostly Cloudy
7:00 AM 36 °F - 35 °F 96% 30.30 in 3 mi WSW 8.9 mph - -   Mist
7:00 AM 35.6 °F 29.2 °F 35.6 °F 100% 30.24 in - SW 8.1 mph - N/A   Mostly Cloudy
7:30 AM 35.6 °F 28.6 °F 35.6 °F 100% 30.24 in 1.7 mi WSW 9.2 mph - N/A   Mostly Cloudy
7:53 AM 35.6 °F 28.0 °F 35.6 °F 100% 30.24 in 1.6 mi WSW 10.4 mph - N/A   Overcast
8:00 AM 35.6 °F 28.0 °F 35.6 °F 100% 30.24 in 1.6 mi WSW 10.4 mph - N/A   Overcast
8:30 AM 35.6 °F 29.2 °F 35.6 °F 100% 30.24 in 1.2 mi WSW 8.1 mph - N/A   Overcast
9:00 AM 37.4 °F 31.4 °F 35.6 °F 93% 30.27 in 1.6 mi SW 8.1 mph - N/A   Overcast
9:30 AM 37.4 °F 30.8 °F 37.4 °F 100% 30.27 in 1.9 mi SW 9.2 mph - N/A   Overcast
10:00 AM 37.4 °F 30.8 °F 37.4 °F 100% 30.27 in 2.5 mi SW 9.2 mph - N/A   Overcast
10:30 AM 39.2 °F 33.0 °F 37.4 °F 93% 30.27 in 2.8 mi SSW 9.2 mph - N/A   Overcast
11:00 AM 39.2 °F 33.0 °F 37.4 °F 93% 30.27 in 3.7 mi SW 9.2 mph - N/A   Overcast
11:30 AM 42.8 °F 37.5 °F 41.0 °F 93% 30.27 in 5.0 mi WSW 9.2 mph - N/A   Mostly Cloudy
12:00 PM 42.8 °F 38.6 °F 41.0 °F 93% 30.24 in 5.6 mi SW 6.9 mph - N/A   Mostly Cloudy
12:30 PM 44.6 °F 41.4 °F 41.0 °F 87% 30.24 in 6.2 mi West 5.8 mph - N/A   Mostly Cloudy
1:00 PM 45 °F - 41 °F 81% 30.29 in 6 mi WSW 6.7 mph - -   Partly Cloudy
1:00 PM 44.6 °F 40.7 °F 41.0 °F 87% 30.24 in 6.2 mi WSW 6.9 mph - N/A   Scattered Clouds
1:30 PM 44.6 °F 40.2 °F 41.0 °F 87% 30.24 in 6.2 mi SW 8.1 mph - N/A   Mostly Cloudy
2:00 PM 44.6 °F 41.4 °F 41.0 °F 87% 30.24 in 6.2 mi WSW 5.8 mph - N/A   Mostly Cloudy
2:30 PM 44.6 °F 41.4 °F 41.0 °F 87% 30.24 in 6.2 mi WSW 5.8 mph - N/A   Mostly Cloudy
3:00 PM 44.6 °F - 41.0 °F 87% 30.24 in 6.2 mi WSW 2.3 mph - N/A   Mostly Cloudy
3:30 PM 44.6 °F - 41.0 °F 87% 30.24 in 5.6 mi Variable 2.3 mph - N/A   Overcast
4:00 PM 44.6 °F - 41.0 °F 87% 30.24 in 5.6 mi West 2.3 mph - N/A   Overcast
4:30 PM 42.8 °F - 41.0 °F 93% 30.24 in 5.0 mi SW 2.3 mph - N/A   Overcast
5:00 PM 42.8 °F - 41.0 °F 93% 30.24 in 5.0 mi SSW 2.3 mph - N/A   Overcast
5:30 PM 42.8 °F - 41.0 °F 93% 30.24 in 5.0 mi South 2.3 mph - N/A   Overcast
6:00 PM 42.8 °F - 39.2 °F 87% 30.24 in 5.0 mi Variable 2.3 mph - N/A   Overcast
6:30 PM 42.8 °F - 41.0 °F 93% 30.24 in 5.0 mi Variable 2.3 mph - N/A   Overcast
7:00 PM 42 °F - 40 °F 88% 30.29 in 5 mi SW 2.2 mph - -   Mist
7:00 PM 42.8 °F - 39.2 °F 87% 30.24 in 5.0 mi Variable 2.3 mph - N/A   Overcast
7:30 PM 42.8 °F 40.1 °F 39.2 °F 87% 30.24 in 5.6 mi SW 4.6 mph - N/A   Overcast
8:00 PM 41.0 °F 39.0 °F 39.2 °F 93% 30.24 in 5.0 mi SW 3.5 mph - N/A   Overcast
8:30 PM 42.8 °F 40.1 °F 39.2 °F 87% 30.24 in 5.6 mi WSW 4.6 mph - N/A   Overcast
9:00 PM 41.0 °F 39.0 °F 39.2 °F 93% 30.24 in 5.6 mi West 3.5 mph - N/A   Overcast
9:30 PM 41.0 °F 39.0 °F 39.2 °F 93% 30.24 in 5.6 mi West 3.5 mph - N/A   Overcast
10:00 PM 41.0 °F 39.0 °F 39.2 °F 93% 30.24 in 5.0 mi WSW 3.5 mph - N/A   Overcast
10:30 PM 41.0 °F 39.0 °F 39.2 °F 93% 30.24 in 5.0 mi SW 3.5 mph - N/A   Overcast
11:00 PM 41.0 °F 39.0 °F 39.2 °F 93% 30.24 in 5.0 mi SW 3.5 mph - N/A   Overcast
11:30 PM 41.0 °F 39.0 °F 39.2 °F 93% 30.24 in 5.0 mi WSW 3.5 mph - N/A   Overcast